Temperature
17 17 17 18 14 12 13 13 14 14 13 13 13 12 11 11 12 11 10 10 10 10 10 11 11 11 11 11 12 12 12 12 12 12 12 12 13 13 13 13 13 13 13 13 14 14 14 14 14
17 17 17 17 12 12 13 13 13 13 13 13 12 11 10 9 9 10 9 9 10 10 10 10 10 11 11 11 11 11 12 12 12 12 12 12 12 12 13 13 13 13 13 13 13 13 14 14 13
17 17 17 12 12 12 13 13 12 13 14 13 11 10 9 9 9 9 9 9 10 10 10 10 10 10 10 11 11 11 11 12 12 12 12 12 12 12 12 12 12 13 13 13 13 13 13 13 13
17 17 16 11 12 12 13 12 12 12 13 12 10 9 8 9 9 9 9 9 9 10 10 10 10 10 10 10 10 11 11 11 11 11 11 12 12 12 12 12 12 12 12 13 13 13 13 13 13
17 16 12 11 12 12 12 12 13 12 11 11 10 8 8 8 8 9 9 9 9 9 9 9 9 10 10 10 10 10 11 11 11 11 11 11 11 11 12 12 12 12 12 12 12 12 12 12 13
16 13 11 11 12 12 12 13 12 11 11 10 9 8 7 8 8 8 8 8 9 9 9 9 9 9 10 10 10 10 10 10 11 11 11 11 11 11 11 11 12 12 12 12 12 12 12 12 12
14 11 11 11 11 12 12 13 12 10 10 10 10 7 7 7 8 8 8 8 8 8 8 9 9 9 9 9 10 10 10 10 10 11 11 11 11 11 11 11 11 11 11 12 12 12 12 12 12
15 10 11 11 11 12 12 12 12 11 10 10 10 8 7 7 7 8 8 8 8 8 8 8 8 8 9 9 9 9 9 10 10 10 10 10 10 11 11 11 11 11 11 11 11 11 12 12 12
14 10 10 11 11 12 12 11 11 11 10 9 9 9 9 8 7 7 7 7 7 7 8 8 8 8 8 8 9 9 9 9 9 9 10 10 10 10 10 10 10 10 11 11 11 11 11 11 11
13 10 11 11 12 11 11 11 10 10 9 8 8 8 8 8 7 7 7 7 7 7 7 7 7 8 8 8 8 8 8 9 9 9 9 9 9 9 9 10 10 10 10 10 10 10 10 11 11
11 10 10 11 12 12 11 10 10 9 8 8 8 8 8 7 7 7 7 7 7 7 7 7 7 7 7 7 7 8 8 8 8 8 8 8 8 9 9 9 9 9 9 10 10 10 10 10 10
9 9 10 11 12 11 10 10 9 9 10 10 10 9 8 7 7 7 7 7 7 7 7 7 7 7 7 7 7 7 7 7 7 7 7 8 8 8 8 8 8 9 9 9 9 9 9 10 10
9 9 10 10 11 10 10 8 8 8 9 9 9 8 8 7 7 7 7 6 6 6 6 6 6 6 6 6 6 6 7 7 7 7 7 7 7 7 7 8 8 8 8 9 9 9 9 9 9
9 9 9 10 10 9 8 7 7 7 8 8 8 7 7 7 7 7 6 6 6 6 6 6 6 6 6 6 6 6 6 6 6 6 6 6 6 7 7 7 7 7 8 8 8 8 8 9 9
10 8 9 9 9 8 8 7 6 7 8 7 7 7 7 7 7 7 6 6 6 6 6 5 5 5 5 5 5 5 5 5 5 6 6 6 6 6 6 6 7 7 7 7 7 8 8 8 8
9 8 8 8 8 8 8 8 7 7 7 6 6 6 6 6 6 6 6 6 6 5 5 5 5 5 5 5 5 5 5 5 5 5 5 5 5 5 6 6 6 6 6 6 7 7 7 7 7
8 8 8 8 8 7 7 7 6 7 6 5 5 5 6 6 6 6 6 5 5 5 5 5 5 5 4 4 4 4 4 4 4 4 4 4 4 5 5 5 5 5 5 6 6 6 6 6 7
8 7 8 8 7 6 6 6 5 6 6 5 5 5 5 5 5 5 5 5 5 5 5 5 4 4 4 4 4 4 4 4 4 4 4 4 4 4 4 4 4 5 5 5 5 5 5 5 6
8 8 8 8 8 7 6 6 5 5 5 4 4 4 4 5 5 5 5 4 4 4 4 4 4 4 4 3 3 4 4 3 3 3 3 3 3 3 4 4 4 4 4 4 4 4 4 5 5
8 8 8 7 7 7 6 5 5 5 4 5 4 4 4 4 4 4 4 4 4 4 4 4 4 3 3 3 3 3 3 3 3 3 3 3 3 3 3 3 3 3 3 3 3 3 3 4 3
8 7 7 7 7 7 6 6 5 5 5 5 5 5 4 4 4 4 4 4 4 4 4 3 3 3 3 3 2 2 2 2 2 2 2 2 2 2 2 2 2 2 2 2 2 2 2 2 2
7 7 7 6 6 5 6 5 6 5 4 4 4 4 4 4 4 4 4 4 4 3 3 3 3 3 2 2 2 2 2 2 2 2 2 2 2 1 2 2 2 2 2 2 2 1 1 1 1
7 7 7 6 5 5 5 5 5 4 4 4 3 4 4 4 4 4 4 4 3 3 3 3 2 2 2 2 2 1 1 1 1 1 1 1 1 1 1 1 1 1 1 1 1 1 0 0 0
6 6 5 4 4 5 5 4 5 4 4 4 3 4 4 4 4 4 4 3 3 3 2 2 2 2 1 1 1 1 1 1 1 1 1 1 1 0 0 0 0 0 -0 -0 -0 -0 -0 -0 -0
6 5 5 5 4 5 4 4 4 4 3 3 3 3 4 4 3 3 3 3 3 2 2 2 1 1 1 1 1 0 0 0 -0 -0 -0 -0 -0 -0 -0 -0 -1 -1 -1 -1 -1 -1 -1 -1 -1
5 5 6 6 5 4 4 3 4 3 3 3 4 3 3 3 3 3 3 3 2 2 2 1 1 1 0 0 0 -0 -0 -1 -1 -1 -1 -1 -1 -1 -1 -1 -1 -1 -1 -1 -2 -2 -2 -2 -2
4 4 5 4 4 4 4 3 3 3 2 2 2 2 2 2 3 3 3 2 2 2 1 1 1 0 -0 -0 -1 -1 -1 -1 -1 -1 -2 -2 -2 -2 -2 -2 -2 -2 -2 -2 -2 -2 -2 -2 -2
4 4 3 4 5 5 4 3 3 3 2 1 1 1 2 2 2 2 2 2 1 1 1 0 -0 -0 -1 -1 -1 -1 -2 -2 -2 -2 -2 -2 -2 -2 -2 -2 -2 -3 -3 -3 -3 -3 -3 -3 -3
4 4 3 3 3 4 4 4 3 2 2 1 1 1 1 2 2 1 1 1 1 0 -0 -0 -1 -1 -1 -1 -2 -2 -2 -2 -2 -2 -3 -3 -3 -3 -3 -3 -3 -3 -3 -4 -4 -3 -3 -3 -3
3 3 3 3 3 2 2 3 2 1 1 1 1 1 1 1 1 1 1 0 -0 -0 -1 -1 -1 -1 -2 -2 -2 -2 -3 -3 -3 -3 -3 -3 -4 -4 -4 -4 -4 -4 -4 -4 -4 -4 -4 -4 -4
Wind_Speed
9 7 3 4 5 5 1 2 2 2 2 2 4 7 8 5 3 5 2 3 5 4 5 6 9 11 12 13 14 14 14 15 15 14 13 13 13 14 14 14 15 15 15 15 14 14 14 14 14
5 2 5 5 5 2 3 3 3 3 5 5 5 6 6 5 4 6 2 3 6 7 6 6 10 11 12 13 14 14 15 15 15 15 14 13 13 13 14 14 14 14 15 14 14 14 14 14 13
3 2 5 5 4 6 5 3 5 3 4 4 5 5 4 4 4 3 3 6 8 8 8 7 10 11 12 13 13 14 15 15 15 15 15 14 13 14 14 14 14 14 14 14 14 14 14 13 13
3 4 5 4 3 4 5 4 6 6 4 4 5 6 3 3 2 3 6 8 8 8 9 8 10 11 12 13 13 14 14 15 15 15 15 15 14 13 13 14 13 13 13 14 14 13 14 14 13
4 4 4 1 3 2 2 4 5 5 4 3 5 6 3 3 6 8 7 8 8 7 9 9 11 11 12 13 13 13 14 14 15 15 15 15 14 14 13 13 13 13 13 13 13 13 13 14 13
4 4 4 4 4 2 2 4 4 4 4 4 6 6 3 2 6 7 7 7 8 8 9 9 10 11 12 13 13 13 14 14 14 15 15 15 15 14 14 13 13 13 13 12 12 12 13 13 13
4 4 5 6 4 3 3 3 5 5 4 3 6 7 4 3 5 7 7 8 8 9 9 10 10 10 11 12 13 13 13 13 14 14 15 15 15 15 14 14 13 12 12 12 12 12 12 12 13
5 5 3 4 5 5 3 3 2 5 4 2 5 8 6 6 7 8 8 7 7 7 8 9 10 10 10 10 11 12 12 13 13 14 14 14 14 14 14 14 14 12 12 12 12 12 12 12 12
4 3 4 6 7 5 3 4 2 2 5 4 2 3 6 12 10 9 7 6 5 6 6 7 8 9 10 9 10 11 11 12 13 13 14 13 13 12 12 14 14 14 12 12 12 12 12 11 11
4 4 6 3 4 5 4 4 5 4 4 3 4 5 11 12 11 10 8 6 5 4 3 5 6 7 8 8 9 10 10 11 12 12 12 12 12 11 11 12 13 14 13 11 11 11 12 11 10
3 5 4 1 1 4 4 3 3 7 4 6 9 12 13 12 10 9 8 7 6 4 4 4 5 7 7 7 8 8 9 10 10 11 11 11 11 11 11 11 11 12 12 11 10 11 11 10 9
3 1 3 2 1 2 4 4 2 3 5 6 11 15 14 13 11 10 9 7 6 5 4 3 5 6 7 7 7 7 8 8 8 10 10 10 9 10 10 10 10 11 10 10 10 9 9 9 9
3 2 1 2 4 3 4 3 3 1 2 7 11 13 13 12 10 8 8 7 6 5 4 3 5 5 6 7 6 7 7 7 8 9 9 10 8 8 8 9 9 10 10 10 9 9 9 8 8
3 3 2 1 2 1 4 1 2 3 6 9 11 11 10 11 10 8 8 7 6 6 5 4 5 5 6 6 6 6 7 8 9 9 10 10 9 8 7 8 8 9 9 9 9 8 7 6 7
2 2 1 1 2 2 4 1 5 6 8 9 9 9 9 9 9 10 9 8 8 7 5 5 5 5 6 6 6 6 7 8 8 8 10 10 9 8 8 7 7 8 9 9 9 8 8 6 6
2 2 2 4 4 4 5 7 6 8 10 8 8 8 8 7 8 8 8 8 7 7 6 5 5 5 5 5 5 6 6 7 7 8 9 10 10 9 8 6 6 8 9 8 6 5 4 4 4
1 3 5 4 4 4 6 7 5 6 10 9 9 8 8 7 6 6 7 7 8 7 7 6 5 5 5 5 5 6 6 6 7 8 8 9 9 9 8 6 6 7 7 7 5 4 3 3 4
5 5 4 6 4 5 6 8 5 6 8 9 9 8 8 9 8 7 7 6 6 6 6 6 6 5 5 5 5 5 5 5 6 7 7 8 8 8 8 7 7 7 5 4 4 4 4 2 3
5 5 5 5 4 5 8 9 9 7 8 9 9 9 9 9 6 7 7 7 6 6 6 6 6 5 4 3 2 2 1 2 3 5 7 7 8 8 8 6 7 6 4 3 4 3 4 4 4
4 4 3 2 1 5 5 8 7 9 10 11 12 12 11 8 7 7 7 7 6 6 6 6 5 5 4 3 2 1 1 1 2 4 6 7 7 7 6 6 6 5 3 3 4 3 2 3 4
6 7 6 4 2 1 1 6 5 5 6 7 9 10 10 12 11 10 9 7 7 7 6 6 5 4 4 3 3 3 2 2 2 2 3 5 6 7 6 6 6 5 4 2 2 3 2 2 3
7 5 5 4 2 4 3 4 6 4 5 8 9 9 11 10 10 10 10 9 8 7 6 6 5 4 4 4 4 4 2 1 0 0 1 3 5 6 6 6 6 5 4 3 3 3 2 1 2
5 3 3 3 3 1 2 3 7 2 6 9 10 11 10 10 11 11 11 10 8 7 6 6 6 5 4 4 4 3 2 1 1 1 1 2 4 5 5 5 5 5 4 4 4 3 2 1 2
4 4 5 4 3 3 5 6 6 4 6 5 6 8 9 9 9 9 8 7 6 6 6 6 6 5 4 4 3 3 3 2 2 1 1 1 2 3 4 4 4 4 4 4 4 3 2 2 2
4 5 2 2 1 6 3 5 7 5 4 4 6 7 8 8 9 9 9 9 8 7 7 6 7 5 4 4 3 3 3 3 3 1 0 1 2 2 3 4 3 4 4 4 4 3 3 2 2
5 6 6 5 5 4 2 6 6 3 2 1 3 5 6 7 8 9 9 9 9 8 8 7 7 5 5 4 3 3 3 2 1 1 1 1 1 2 3 3 4 4 4 4 4 3 3 3 3
5 4 3 4 1 2 5 5 5 1 1 1 3 5 6 6 7 7 7 8 8 8 8 8 7 5 5 4 3 3 3 2 2 1 1 1 2 2 3 4 4 4 4 4 4 2 3 3 4
3 5 4 4 4 4 5 4 4 5 4 3 4 5 5 5 5 5 5 6 6 6 6 6 6 6 4 4 4 3 2 2 2 1 1 1 2 3 3 4 4 4 4 4 4 3 4 3 4
4 3 4 4 3 5 4 6 4 6 6 6 5 5 5 5 5 4 4 4 4 4 5 5 5 5 4 4 4 3 2 2 1 1 1 2 2 3 3 3 4 4 4 4 3 4 5 4 4
5 6 6 5 5 4 3 6 3 3 3 5 5 4 4 4 4 4 4 4 4 4 4 5 5 5 4 4 4 3 2 2 1 1 2 2 2 3 3 4 4 4 4 4 4 5 5 5 5
Wind_Direction
326 341 68 59 61 62 190 240 176 110 84 73 76 92 106 100 116 140 149 122 95 71 56 54 60 60 60 59 57 55 53 52 50 50 53 56 59 59 57 56 55 54 54 55 56 57 58 58 59
333 19 59 64 100 135 249 238 179 172 154 135 76 76 83 80 73 103 114 108 92 80 65 59 66 63 61 59 57 55 53 51 49 48 49 53 57 58 57 56 55 53 53 54 55 54 55 56 57
345 68 84 84 123 177 198 206 177 147 127 110 80 54 82 105 102 114 128 112 88 75 69 65 69 65 63 61 59 56 54 52 49 48 47 50 55 57 56 54 54 53 52 53 55 55 53 54 57
68 56 63 88 178 215 188 185 160 134 96 72 105 84 64 35 110 121 117 101 86 71 72 73 71 67 65 63 61 58 55 53 52 49 48 49 53 55 54 52 53 55 53 52 53 54 53 53 57
67 85 84 102 215 232 201 176 153 127 129 104 112 111 93 31 93 104 99 93 93 72 70 76 73 69 67 63 61 59 56 54 52 51 49 48 50 52 52 52 53 54 54 53 51 52 51 51 53
70 82 118 195 213 217 206 173 143 118 120 112 115 117 126 111 104 107 97 87 88 81 73 73 75 71 67 64 61 59 58 55 53 51 49 47 45 48 48 49 50 52 51 51 51 50 50 49 50
119 119 162 178 185 220 213 160 148 144 131 149 134 121 137 148 127 114 100 90 84 84 75 67 67 70 69 67 63 61 58 55 53 50 49 46 44 44 45 45 45 50 50 49 50 49 48 47 47
132 123 151 178 180 214 195 137 136 137 142 112 120 140 170 174 139 113 100 92 82 73 71 69 68 67 64 65 64 61 57 54 52 49 48 46 44 42 43 41 41 43 47 47 47 47 45 43 44
109 109 191 197 187 197 168 133 80 83 107 85 69 140 150 140 131 115 104 90 85 78 64 69 69 68 67 66 63 59 56 53 51 48 46 44 43 39 40 41 40 40 43 44 45 45 43 41 42
110 172 207 209 184 168 162 148 150 113 101 101 82 90 122 135 136 133 131 126 117 103 83 64 69 69 69 68 63 59 54 52 51 50 46 46 44 40 39 40 39 37 38 41 42 44 42 39 37
138 175 187 229 179 149 145 139 143 135 172 189 165 149 145 144 144 145 145 145 143 132 105 75 74 76 72 68 65 60 56 53 53 50 46 46 44 41 39 40 36 34 34 34 35 38 37 36 35
137 180 171 210 156 140 146 139 126 178 208 176 157 152 152 155 159 159 155 153 143 130 120 98 81 80 76 73 67 63 58 54 49 46 44 46 45 39 36 37 35 33 31 31 32 32 31 32 32
184 184 165 137 99 111 107 122 144 223 172 132 137 147 157 162 162 158 152 147 142 136 129 115 86 83 84 76 67 61 56 54 50 46 43 48 48 38 34 34 35 32 30 29 28 29 28 26 25
171 154 160 153 126 131 136 157 131 213 150 137 145 156 162 164 162 154 152 153 152 149 140 125 100 92 88 78 69 65 61 56 52 48 44 47 48 42 35 33 31 28 26 27 26 27 26 23 23
123 107 345 248 170 173 122 276 212 185 149 150 158 162 161 165 164 166 168 164 162 156 144 132 117 96 89 83 76 69 63 60 54 49 46 46 45 42 38 34 29 22 22 25 29 28 28 25 20
109 124 228 245 182 166 156 241 224 174 157 167 170 169 168 171 171 170 166 161 159 152 147 141 121 106 94 86 80 74 66 61 53 51 49 45 43 41 41 38 28 21 25 24 26 23 22 14 7
108 207 222 241 194 157 179 232 221 179 169 179 181 179 174 174 174 171 164 163 160 155 150 142 131 122 102 91 85 77 68 61 53 50 48 43 40 38 41 38 28 25 29 26 19 19 21 9 358
203 208 219 223 204 166 201 236 229 199 188 189 186 184 182 185 187 173 161 157 157 152 148 144 138 128 110 96 82 69 59 52 53 51 46 41 38 37 40 36 29 30 33 22 15 14 15 10 351
178 187 219 231 189 183 218 239 238 211 197 198 195 192 194 197 183 165 161 154 150 150 148 147 143 142 129 121 111 94 67 49 43 47 45 40 36 38 40 33 27 30 35 20 13 11 12 9 0
202 213 234 282 196 198 234 253 243 213 205 202 199 198 196 188 173 171 166 162 160 158 156 154 153 152 148 142 137 129 132 81 43 41 39 38 37 36 37 36 28 22 26 28 20 19 3 355 11
219 210 218 227 329 243 279 287 245 231 208 206 202 196 192 190 184 178 174 172 166 165 167 162 160 153 144 128 111 96 74 55 39 27 24 27 32 31 31 31 31 21 18 11 356 1 9 341 341
227 210 194 189 170 255 191 268 269 227 222 217 210 198 196 192 184 180 177 175 175 176 167 158 154 146 139 131 135 134 129 129 198 1 5 13 25 26 25 27 28 22 16 1 343 0 345 330 325
203 168 161 174 170 276 227 214 279 242 235 231 215 204 200 191 183 181 181 178 173 166 162 157 150 146 139 137 142 136 130 132 97 51 30 12 11 17 18 22 21 15 9 0 351 345 340 319 291
132 79 67 59 88 256 213 192 269 232 228 235 212 200 194 186 180 178 172 162 162 159 157 155 152 152 149 147 146 149 150 141 116 66 29 353 350 358 5 10 12 7 0 351 342 341 330 310 296
110 108 65 340 283 248 193 196 247 252 239 220 202 194 186 176 171 170 167 168 169 166 165 162 161 161 160 157 158 162 165 162 167 178 209 308 328 331 338 349 352 349 346 341 341 344 332 307 286
180 157 167 204 225 263 217 224 252 275 273 233 174 165 161 169 171 175 177 175 175 173 170 168 170 167 167 167 169 165 164 163 174 181 205 251 278 292 319 330 335 335 337 334 337 336 319 316 291
151 194 171 141 163 256 253 267 299 282 357 116 141 147 166 173 174 176 177 177 178 177 177 176 172 171 174 173 166 166 167 163 175 186 205 258 286 308 327 327 328 331 331 327 326 319 308 309 294
153 151 123 148 182 241 270 257 247 238 225 204 185 182 185 172 170 172 174 178 179 177 172 166 167 174 174 172 176 177 172 173 172 171 227 264 292 309 317 321 321 323 323 320 318 308 302 294 291
158 161 162 157 178 185 245 264 235 216 203 196 200 191 182 177 176 173 170 163 158 155 156 163 169 168 172 175 173 170 177 177 172 200 241 265 291 305 305 307 308 307 305 305 302 297 294 287 291
183 183 160 173 220 199 204 265 302 208 193 180 182 177 168 167 166 163 158 145 143 154 167 175 177 178 181 176 170 174 176 174 190 229 254 273 282 293 298 300 299 300 304 301 293 292 295 283 283
Height
1515 1516 1517 1519 1524 1536 1540 1535 1531 1531 1532 1533 1532 1533 1535 1540 1544 1552 1550 1548 1550 1550 1551 1551 1551 1550 1550 1550 1549 1548 1548 1547 1546 1546 1545 1545 1544 1544 1543 1542 1542 1541 1541 1541 1541 1540 1540 1540 1540
1515 1516 1518 1519 1530 1543 1541 1533 1531 1530 1531 1532 1533 1535 1537 1541 1543 1545 1546 1548 1549 1550 1550 1550 1550 1550 1550 1549 1549 1548 1548 1547 1546 1546 1545 1545 1544 1544 1543 1543 1542 1542 1542 1541 1541 1541 1541 1541 1541
1515 1516 1518 1522 1534 1538 1535 1530 1529 1529 1531 1531 1534 1536 1539 1542 1543 1544 1546 1547 1548 1549 1550 1550 1550 1550 1549 1549 1548 1548 1547 1547 1546 1546 1545 1545 1545 1544 1543 1543 1543 1542 1542 1542 1542 1542 1542 1542 1542
1514 1516 1518 1527 1533 1531 1528 1528 1527 1528 1530 1531 1533 1538 1541 1543 1544 1545 1546 1547 1548 1549 1549 1549 1549 1549 1549 1549 1548 1548 1547 1547 1546 1546 1545 1545 1544 1544 1543 1543 1543 1543 1543 1542 1542 1542 1542 1543 1543
1513 1515 1523 1533 1531 1528 1526 1526 1526 1527 1529 1532 1533 1538 1541 1544 1544 1545 1546 1547 1547 1548 1549 1549 1549 1549 1549 1548 1548 1547 1547 1546 1546 1546 1545 1545 1544 1544 1544 1543 1543 1543 1543 1543 1543 1543 1543 1543 1543
1513 1515 1529 1534 1530 1527 1526 1526 1526 1528 1530 1532 1533 1537 1541 1543 1544 1545 1546 1546 1547 1548 1548 1548 1548 1548 1548 1548 1547 1547 1546 1546 1545 1545 1545 1544 1544 1543 1543 1543 1543 1543 1543 1542 1542 1542 1542 1543 1543
1513 1518 1526 1528 1530 1528 1525 1525 1526 1527 1529 1532 1532 1537 1540 1542 1543 1544 1545 1546 1547 1547 1548 1548 1548 1547 1547 1547 1547 1546 1546 1545 1545 1545 1544 1543 1543 1543 1543 1542 1542 1542 1542 1542 1542 1542 1542 1542 1542
1511 1517 1524 1527 1527 1526 1523 1524 1525 1527 1529 1531 1532 1534 1537 1540 1542 1543 1545 1546 1546 1547 1547 1547 1547 1547 1546 1546 1546 1546 1545 1545 1544 1544 1543 1543 1542 1542 1542 1542 1542 1542 1542 1541 1541 1541 1541 1541 1542
1510 1520 1525 1523 1522 1521 1521 1523 1525 1526 1528 1529 1531 1532 1534 1537 1540 1542 1543 1544 1545 1546 1546 1546 1546 1546 1546 1546 1545 1545 1545 1544 1543 1543 1543 1542 1542 1541 1541 1541 1541 1541 1541 1541 1541 1540 1541 1541 1541
1510 1520 1519 1517 1516 1517 1519 1521 1523 1526 1527 1528 1530 1531 1533 1535 1537 1539 1540 1542 1543 1544 1545 1545 1545 1545 1545 1545 1545 1544 1544 1543 1543 1542 1542 1541 1541 1540 1540 1540 1540 1539 1539 1540 1540 1540 1540 1540 1540
1510 1515 1515 1515 1515 1516 1518 1520 1522 1523 1526 1525 1525 1528 1531 1534 1536 1537 1539 1540 1541 1543 1544 1544 1544 1544 1544 1544 1544 1543 1543 1542 1542 1542 1541 1540 1540 1540 1539 1539 1538 1538 1538 1538 1538 1538 1538 1538 1539
1511 1514 1514 1514 1515 1516 1517 1519 1521 1521 1522 1522 1523 1525 1528 1531 1533 1535 1537 1538 1540 1541 1542 1543 1543 1543 1543 1543 1543 1542 1542 1541 1541 1540 1540 1539 1539 1539 1538 1538 1537 1537 1537 1537 1537 1537 1537 1537 1537
1512 1513 1514 1514 1515 1516 1517 1519 1520 1520 1521 1522 1523 1525 1527 1529 1532 1534 1536 1537 1538 1539 1540 1541 1542 1542 1542 1542 1542 1541 1541 1540 1540 1540 1539 1539 1538 1537 1537 1537 1536 1536 1536 1535 1535 1535 1535 1535 1535
1511 1513 1514 1515 1515 1516 1518 1520 1520 1519 1520 1521 1523 1524 1526 1528 1530 1532 1534 1535 1536 1538 1539 1540 1541 1541 1541 1541 1541 1540 1540 1540 1539 1539 1538 1538 1537 1536 1536 1536 1535 1535 1534 1534 1533 1533 1533 1533 1533
1511 1514 1515 1515 1515 1516 1518 1521 1519 1517 1519 1520 1522 1523 1525 1527 1529 1530 1531 1533 1535 1536 1538 1538 1539 1540 1540 1540 1540 1540 1539 1539 1538 1538 1537 1536 1536 1535 1535 1534 1533 1533 1533 1532 1532 1531 1531 1531 1531
1512 1516 1518 1514 1514 1516 1520 1519 1515 1515 1517 1518 1520 1521 1523 1525 1527 1528 1530 1532 1533 1535 1536 1537 1538 1538 1539 1539 1539 1539 1538 1538 1538 1537 1536 1535 1535 1534 1533 1533 1532 1531 1531 1530 1530 1529 1529 1529 1528
1515 1517 1516 1514 1513 1514 1518 1516 1513 1513 1514 1516 1518 1519 1521 1523 1525 1526 1528 1530 1531 1533 1534 1535 1536 1536 1537 1537 1538 1538 1537 1537 1536 1536 1535 1534 1534 1533 1532 1531 1531 1530 1529 1528 1528 1527 1527 1526 1526
1514 1515 1514 1514 1511 1514 1516 1514 1511 1512 1513 1514 1515 1517 1518 1520 1521 1524 1526 1528 1529 1531 1532 1533 1534 1535 1535 1536 1536 1536 1536 1536 1535 1534 1534 1533 1533 1531 1530 1530 1529 1529 1528 1527 1526 1525 1525 1524 1524
1507 1509 1511 1509 1508 1512 1513 1511 1509 1509 1511 1511 1512 1513 1515 1516 1519 1521 1523 1525 1527 1528 1530 1530 1532 1532 1533 1533 1533 1533 1533 1533 1533 1533 1532 1532 1531 1530 1529 1528 1527 1527 1526 1525 1524 1523 1522 1522 1521
1506 1509 1510 1510 1508 1511 1512 1510 1506 1506 1505 1506 1507 1509 1511 1514 1516 1518 1520 1522 1524 1525 1527 1528 1529 1530 1531 1531 1532 1532 1532 1531 1531 1531 1531 1530 1529 1528 1528 1527 1526 1525 1524 1524 1523 1522 1521 1520 1520
1505 1507 1509 1511 1510 1510 1512 1509 1505 1502 1502 1503 1504 1505 1507 1509 1511 1514 1516 1518 1520 1522 1524 1525 1527 1528 1529 1529 1530 1530 1530 1529 1529 1529 1529 1528 1528 1527 1526 1525 1524 1523 1522 1521 1521 1520 1519 1518 1518
1504 1503 1505 1509 1514 1516 1513 1516 1503 1500 1500 1499 1500 1501 1503 1505 1507 1510 1512 1515 1517 1519 1522 1523 1524 1525 1526 1527 1527 1527 1527 1527 1527 1527 1527 1526 1526 1525 1524 1523 1522 1521 1520 1519 1519 1518 1517 1517 1516
1501 1501 1504 1507 1512 1517 1515 1517 1505 1500 1499 1496 1495 1496 1498 1501 1504 1506 1509 1512 1514 1517 1519 1521 1522 1523 1524 1525 1525 1525 1525 1525 1525 1525 1524 1524 1523 1523 1522 1521 1520 1519 1518 1517 1516 1515 1515 1514 1513
1500 1504 1507 1513 1517 1517 1511 1515 1504 1500 1494 1492 1492 1493 1495 1498 1501 1504 1507 1510 1512 1514 1516 1518 1519 1520 1521 1522 1523 1523 1523 1523 1522 1522 1522 1521 1521 1520 1520 1519 1518 1517 1515 1514 1513 1512 1512 1511 1510
1501 1508 1513 1514 1519 1513 1508 1510 1502 1493 1491 1490 1489 1490 1492 1495 1498 1501 1504 1507 1509 1511 1513 1515 1516 1517 1519 1520 1520 1521 1521 1521 1520 1520 1519 1519 1518 1517 1517 1516 1515 1514 1512 1511 1510 1509 1508 1507 1507
1501 1503 1509 1512 1513 1512 1509 1508 1497 1491 1489 1488 1488 1489 1491 1494 1496 1499 1501 1504 1506 1508 1510 1512 1513 1515 1516 1517 1518 1518 1518 1518 1518 1517 1517 1516 1515 1515 1514 1513 1512 1511 1509 1508 1507 1506 1505 1504 1503
1501 1504 1503 1510 1514 1515 1508 1503 1495 1490 1489 1488 1489 1489 1490 1492 1495 1497 1499 1502 1504 1506 1507 1509 1511 1512 1513 1514 1515 1515 1515 1515 1515 1515 1514 1514 1513 1512 1511 1510 1509 1507 1506 1505 1503 1502 1501 1500 1499
1497 1500 1507 1509 1508 1508 1503 1503 1497 1490 1489 1489 1489 1489 1490 1492 1494 1496 1498 1500 1502 1503 1505 1507 1508 1509 1511 1511 1512 1512 1512 1512 1512 1512 1511 1510 1510 1508 1507 1506 1505 1504 1502 1501 1499 1498 1496 1495 1494
1499 1500 1502 1507 1507 1509 1507 1499 1488 1487 1486 1487 1488 1489 1490 1491 1493 1495 1497 1498 1500 1501 1503 1504 1505 1507 1508 1508 1509 1509 1509 1509 1509 1508 1508 1507 1506 1505 1504 1502 1501 1499 1498 1497 1495 1493 1492 1490 1489
1494 1495 1499 1503 1506 1509 1510 1500 1486 1485 1484 1485 1487 1488 1489 1491 1492 1494 1495 1497 1498 1499 1500 1501 1502 1503 1504 1505 1506 1506 1506 1506 1506 1505 1505 1504 1503 1501 1500 1499 1497 1495 1494 1492 1490 1488 1487 1485 1484